| time (UTC) | temp F | wind direction | speed knots | gust knots | rain 1hr in | rain 24hr in | rain mn in | humidity % | barometer mb |
| 20260503021032 | 58 | 352 | 4.3 | 5.2 | 0.00 | 0.00 | 0.00 | 31 | 931.5 |
| 20260503020529 | 58 | 6 | 0.0 | 1.7 | 0.00 | 0.00 | 0.00 | 32 | 931.5 |
| 20260503020026 | 59 | 6 | 2.6 | 4.3 | 0.00 | 0.00 | 0.00 | 31 | 931.5 |
| 20260503015523 | 59 | 330 | 0.0 | 2.6 | 0.00 | 0.00 | 0.00 | 30 | 931.5 |
| 20260503015020 | 60 | 309 | 0.0 | 2.6 | 0.00 | 0.00 | 0.00 | 29 | 931.5 |
| 20260503014516 | 60 | 309 | 2.6 | 4.3 | 0.00 | 0.00 | 0.00 | 28 | 931.3 |
| 20260503014014 | 61 | 0 | 2.6 | 4.3 | 0.00 | 0.00 | 0.00 | 28 | 931.2 |
| 20260503013511 | 61 | 322 | 0.9 | 4.3 | 0.00 | 0.00 | 0.00 | 28 | 931.1 |
| 20260503013009 | 62 | 347 | 0.0 | 1.7 | 0.00 | 0.00 | 0.00 | 27 | 931.2 |
| 20260503012506 | 62 | 305 | 6.1 | 7.0 | 0.00 | 0.00 | 0.00 | 25 | 931.5 |
| 20260503012002 | 62 | 317 | 7.0 | 7.8 | 0.00 | 0.00 | 0.00 | 25 | 931.3 |
| 20260503011459 | 62 | 334 | 3.5 | 7.0 | 0.00 | 0.00 | 0.00 | 26 | 931.3 |
| 20260503010956 | 63 | 292 | 7.8 | 9.6 | 0.00 | 0.00 | 0.00 | 25 | 931.6 |
| 20260503010452 | 63 | 346 | 2.6 | 8.7 | 0.00 | 0.00 | 0.00 | 24 | 931.6 |
| 20260503005950 | 64 | 324 | 7.0 | 7.8 | 0.00 | 0.00 | 0.00 | 23 | 931.5 |
| 20260503005447 | 64 | 326 | 4.3 | 6.1 | 0.00 | 0.00 | 0.00 | 24 | 931.6 |
| 20260503004944 | 65 | 333 | 0.9 | 7.8 | 0.00 | 0.00 | 0.00 | 23 | 931.7 |
| 20260503004440 | 64 | 345 | 2.6 | 4.3 | 0.00 | 0.00 | 0.00 | 23 | 931.5 |
| 20260503003938 | 65 | 321 | 7.0 | 7.8 | 0.00 | 0.00 | 0.00 | 22 | 931.7 |
| 20260503003435 | 65 | 324 | 7.0 | 8.7 | 0.00 | 0.00 | 0.00 | 21 | 931.5 |
| 20260503002932 | 65 | 11 | 0.0 | 9.6 | 0.00 | 0.00 | 0.00 | 22 | 932.0 |
| 20260503002429 | 66 | 278 | 0.9 | 8.7 | 0.00 | 0.00 | 0.00 | 22 | 931.9 |
| 20260503001925 | 66 | 274 | 0.9 | 8.7 | 0.00 | 0.00 | 0.00 | 21 | 931.8 |
| 20260503001422 | 67 | 284 | 4.3 | 8.7 | 0.00 | 0.00 | 0.00 | 21 | 931.8 |
| 20260503000920 | 67 | 250 | 4.3 | 5.2 | 0.00 | 0.00 | 0.00 | 20 | 931.9 |
| 20260503000416 | 67 | 303 | 3.5 | 7.8 | 0.00 | 0.00 | 0.00 | 20 | 931.6 |
| 20260502235914 | 68 | 293 | 5.2 | 8.7 | 0.00 | 0.00 | 0.00 | 19 | 931.6 |
| 20260502235411 | 67 | 300 | 1.7 | 7.8 | 0.00 | 0.00 | 0.00 | 20 | 931.9 |
| 20260502234909 | 67 | 341 | 4.3 | 6.1 | 0.00 | 0.00 | 0.00 | 20 | 931.8 |
| 20260502234405 | 68 | 288 | 2.6 | 7.8 | 0.00 | 0.00 | 0.00 | 20 | 931.9 |
| 20260502233902 | 67 | 346 | 0.0 | 6.1 | 0.00 | 0.00 | 0.00 | 19 | 931.8 |
| 20260502233357 | 67 | 289 | 3.5 | 7.0 | 0.00 | 0.00 | 0.00 | 20 | 931.7 |
| 20260502232854 | 67 | 264 | 3.5 | 14.8 | 0.00 | 0.00 | 0.00 | 19 | 931.7 |
| 20260502232350 | 68 | 242 | 6.1 | 9.6 | 0.00 | 0.00 | 0.00 | 19 | 931.8 |
| 20260502231847 | 68 | 267 | 3.5 | 7.0 | 0.00 | 0.00 | 0.00 | 17 | 931.5 |
| 20260502231345 | 68 | 232 | 3.5 | 6.1 | 0.00 | 0.00 | 0.00 | 16 | 931.9 |
| 20260502230843 | 69 | 231 | 2.6 | 7.0 | 0.00 | 0.00 | 0.00 | 18 | 931.7 |
| 20260502230341 | 68 | 305 | 5.2 | 11.3 | 0.00 | 0.00 | 0.00 | 18 | 931.7 |
| 20260502225837 | 69 | 16 | 5.2 | 7.8 | 0.00 | 0.00 | 0.00 | 18 | 931.6 |
| 20260502225334 | 67 | 241 | 1.7 | 5.2 | 0.00 | 0.00 | 0.00 | 20 | 931.8 |
| 20260502224831 | 68 | 136 | 2.6 | 7.8 | 0.00 | 0.00 | 0.00 | 19 | 931.9 |
| 20260502224327 | 67 | 19 | 0.0 | 6.1 | 0.00 | 0.00 | 0.00 | 17 | 931.7 |
| 20260502223825 | 68 | 311 | 5.2 | 8.7 | 0.00 | 0.00 | 0.00 | 16 | 931.7 |
| 20260502223323 | 69 | 199 | 6.1 | 9.6 | 0.00 | 0.00 | 0.00 | 16 | 932.0 |
| 20260502222820 | 68 | 158 | 0.0 | 4.3 | 0.00 | 0.00 | 0.00 | 15 | 931.9 |
| 20260502222317 | 68 | 195 | 2.6 | 5.2 | 0.00 | 0.00 | 0.00 | 15 | 932.1 |
| 20260502221813 | 67 | 207 | 2.6 | 7.0 | 0.00 | 0.00 | 0.00 | 16 | 932.1 |
| 20260502221309 | 67 | 194 | 1.7 | 6.1 | 0.00 | 0.00 | 0.00 | 16 | 932.0 |
| 20260502220807 | 67 | 218 | 5.2 | 11.3 | 0.00 | 0.00 | 0.00 | 17 | 932.3 |
| 20260502220302 | 67 | 330 | 0.0 | 8.7 | 0.00 | 0.00 | 0.00 | 16 | 932.4 |
| 20260502215759 | 68 | 329 | 8.7 | 9.6 | 0.00 | 0.00 | 0.00 | 17 | 932.6 |
| 20260502215256 | 67 | 221 | 3.5 | 8.7 | 0.00 | 0.00 | 0.00 | 16 | 932.8 |
| 20260502214753 | 66 | 342 | 0.0 | 8.7 | 0.00 | 0.00 | 0.00 | 16 | 932.7 |
| 20260502214250 | 67 | 331 | 0.9 | 11.3 | 0.00 | 0.00 | 0.00 | 17 | 932.9 |
| 20260502213748 | 68 | 247 | 2.6 | 7.8 | 0.00 | 0.00 | 0.00 | 17 | 933.1 |
| 20260502213245 | 67 | 7 | 0.0 | 0.0 | 0.00 | 0.00 | 0.00 | 16 | 932.9 |
| 20260502212744 | 66 | 246 | 0.9 | 7.0 | 0.00 | 0.00 | 0.00 | 17 | 933.1 |
| 20260502212241 | 68 | 291 | 0.0 | 1.7 | 0.00 | 0.00 | 0.00 | 16 | 933.2 |
| 20260502211737 | 67 | 248 | 7.8 | 11.3 | 0.00 | 0.00 | 0.00 | 16 | 933.3 |
| 20260502211234 | 66 | 219 | 0.0 | 0.0 | 0.00 | 0.00 | 0.00 | 17 | 933.2 |
| 20260502210731 | 66 | 342 | 0.9 | 7.0 | 0.00 | 0.00 | 0.00 | 18 | 933.3 |
| 20260502210228 | 68 | 197 | 2.6 | 6.1 | 0.00 | 0.00 | 0.00 | 17 | 933.3 |
| 20260502205726 | 66 | 293 | 4.3 | 13.9 | 0.00 | 0.00 | 0.00 | 17 | 933.4 |
| 20260502205222 | 66 | 12 | 2.6 | 6.1 | 0.00 | 0.00 | 0.00 | 17 | 933.5 |
| 20260502204719 | 68 | 219 | 3.5 | 8.7 | 0.00 | 0.00 | 0.00 | 17 | 933.5 |
| 20260502204217 | 66 | 25 | 2.6 | 7.8 | 0.00 | 0.00 | 0.00 | 18 | 933.5 |
| 20260502203714 | 65 | 120 | 2.6 | 4.3 | 0.00 | 0.00 | 0.00 | 19 | 933.5 |
| 20260502203212 | 65 | 138 | 0.0 | 4.3 | 0.00 | 0.00 | 0.00 | 18 | 933.7 |
| 20260502202706 | 65 | 247 | 4.3 | 5.2 | 0.00 | 0.00 | 0.00 | 19 | 933.7 |
| 20260502202204 | 66 | 316 | 2.6 | 7.0 | 0.00 | 0.00 | 0.00 | 19 | 933.9 |
| 20260502201701 | 65 | 343 | 2.6 | 4.3 | 0.00 | 0.00 | 0.00 | 18 | 933.9 |
| 20260502201158 | 64 | 320 | 1.7 | 7.8 | 0.00 | 0.00 | 0.00 | 18 | 934.0 |
| 20260502200653 | 65 | 271 | 2.6 | 5.2 | 0.00 | 0.00 | 0.00 | 18 | 934.0 |
| 20260502200150 | 66 | 313 | 2.6 | 5.2 | 0.00 | 0.00 | 0.00 | 19 | 934.0 |
| 20260502195648 | 67 | 276 | 7.8 | 13.0 | 0.00 | 0.00 | 0.00 | 17 | 933.9 |
| 20260502195144 | 64 | 33 | 0.0 | 4.3 | 0.00 | 0.00 | 0.00 | 18 | 934.0 |
| 20260502194641 | 64 | 235 | 2.6 | 6.1 | 0.00 | 0.00 | 0.00 | 17 | 933.9 |
| 20260502194138 | 65 | 264 | 4.3 | 7.8 | 0.00 | 0.00 | 0.00 | 19 | 934.1 |
| 20260502193634 | 66 | 251 | 6.1 | 7.8 | 0.00 | 0.00 | 0.00 | 18 | 934.2 |
| 20260502193131 | 66 | 260 | 2.6 | 7.0 | 0.00 | 0.00 | 0.00 | 19 | 934.2 |
| 20260502192627 | 64 | 212 | 1.7 | 7.0 | 0.00 | 0.00 | 0.00 | 18 | 934.2 |
| 20260502192125 | 63 | 191 | 0.0 | 6.1 | 0.00 | 0.00 | 0.00 | 17 | 934.5 |
| 20260502191621 | 64 | 312 | 7.0 | 8.7 | 0.00 | 0.00 | 0.00 | 19 | 934.3 |
| 20260502191119 | 64 | 337 | 5.2 | 7.8 | 0.00 | 0.00 | 0.00 | 19 | 934.4 |
| 20260502190616 | 63 | 321 | 3.5 | 7.8 | 0.00 | 0.00 | 0.00 | 19 | 934.7 |
| 20260502190114 | 62 | 14 | 0.9 | 7.0 | 0.00 | 0.00 | 0.00 | 19 | 934.4 |
| 20260502185608 | 64 | 246 | 4.3 | 6.1 | 0.00 | 0.00 | 0.00 | 20 | 934.7 |
| 20260502185106 | 63 | 267 | 4.3 | 9.6 | 0.00 | 0.00 | 0.00 | 19 | 934.7 |
| 20260502184602 | 64 | 175 | 3.5 | 6.1 | 0.00 | 0.00 | 0.00 | 20 | 934.7 |
| 20260502184057 | 63 | 328 | 7.8 | 8.7 | 0.00 | 0.00 | 0.00 | 21 | 934.8 |
| 20260502183554 | 61 | 179 | 0.0 | 1.7 | 0.00 | 0.00 | 0.00 | 22 | 934.7 |
| 20260502183050 | 60 | 9 | 6.1 | 8.7 | 0.00 | 0.00 | 0.00 | 21 | 935.1 |
| 20260502182545 | 62 | 16 | 4.3 | 7.8 | 0.00 | 0.00 | 0.00 | 20 | 934.9 |
| 20260502182041 | 63 | 44 | 0.0 | 0.0 | 0.00 | 0.00 | 0.00 | 21 | 935.0 |
| 20260502181539 | 63 | 255 | 4.3 | 6.1 | 0.00 | 0.00 | 0.00 | 19 | 935.1 |
| 20260502181038 | 64 | 337 | 3.5 | 7.0 | 0.00 | 0.00 | 0.00 | 20 | 935.2 |
| 20260502180534 | 64 | 246 | 0.0 | 0.0 | 0.00 | 0.00 | 0.00 | 19 | 935.2 |
| 20260502170453 | 62 | 75 | 0.0 | 1.7 | 0.00 | 0.00 | 0.00 | 21 | 935.5 |
| 20260502163931 | 59 | 211 | 0.0 | 2.6 | 0.00 | 0.00 | 0.00 | 27 | 935.7 |
| 20260502163427 | 59 | 92 | 0.0 | 1.7 | 0.00 | 0.00 | 0.00 | 26 | 935.7 |
| 20260502162926 | 58 | 309 | 4.3 | 5.2 | 0.00 | 0.00 | 0.00 | 26 | 935.5 |
| 20260502162422 | 57 | 177 | 0.9 | 2.6 | 0.00 | 0.00 | 0.00 | 26 | 935.5 |
| 20260502161919 | 57 | 330 | 0.0 | 1.7 | 0.00 | 0.00 | 0.00 | 27 | 935.6 |
| 20260502161415 | 56 | 299 | 0.0 | 5.2 | 0.00 | 0.00 | 0.00 | 28 | 935.6 |
| 20260502160913 | 56 | 355 | 0.0 | 4.3 | 0.00 | 0.00 | 0.00 | 27 | 935.7 |
| 20260502160411 | 55 | 356 | 0.0 | 2.6 | 0.00 | 0.00 | 0.00 | 29 | 935.8 |
| 20260502151849 | 52 | 51 | 0.0 | 0.0 | 0.00 | 0.00 | 0.00 | 36 | 936.0 |
| 20260502151345 | 51 | 71 | 0.0 | 0.0 | 0.00 | 0.00 | 0.00 | 37 | 936.0 |
| 20260502150843 | 50 | 127 | 0.0 | 0.0 | 0.00 | 0.00 | 0.00 | 39 | 935.9 |
| 20260502150339 | 50 | 80 | 0.0 | 0.0 | 0.00 | 0.00 | 0.00 | 39 | 936.1 |
| 20260502130727 | 31 | 123 | 2.6 | 5.2 | 0.00 | 0.00 | 0.00 | 68 | 935.8 |
| 20260502130225 | 30 | 107 | 2.6 | 5.2 | 0.00 | 0.00 | 0.00 | 68 | 935.7 |
| 20260502123711 | 29 | 120 | 2.6 | 4.3 | 0.00 | 0.00 | 0.00 | 70 | 935.5 |
| 20260502123208 | 29 | 127 | 2.6 | 6.1 | 0.00 | 0.00 | 0.00 | 70 | 935.5 |
| 20260502122704 | 29 | 124 | 3.5 | 5.2 | 0.00 | 0.00 | 0.00 | 70 | 935.5 |
| 20260502122200 | 29 | 110 | 2.6 | 4.3 | 0.00 | 0.00 | 0.00 | 70 | 935.5 |
| 20260502121659 | 29 | 135 | 2.6 | 6.1 | 0.00 | 0.00 | 0.00 | 70 | 935.2 |
| 20260502121156 | 29 | 128 | 4.3 | 6.1 | 0.00 | 0.00 | 0.00 | 70 | 935.6 |
| 20260502120653 | 29 | 141 | 4.3 | 4.3 | 0.00 | 0.00 | 0.00 | 71 | 935.5 |
| 20260502120150 | 28 | 118 | 2.6 | 2.6 | 0.00 | 0.00 | 0.00 | 72 | 935.3 |
| 20260502115647 | 28 | 110 | 1.7 | 2.6 | 0.00 | 0.00 | 0.00 | 72 | 935.2 |
| 20260502115143 | 28 | 112 | 1.7 | 4.3 | 0.00 | 0.00 | 0.00 | 72 | 935.5 |
| 20260502114640 | 28 | 123 | 4.3 | 5.2 | 0.00 | 0.00 | 0.00 | 72 | 935.3 |
| 20260502114137 | 28 | 114 | 2.6 | 5.2 | 0.00 | 0.00 | 0.00 | 71 | 935.5 |
| 20260502113634 | 29 | 119 | 3.5 | 4.3 | 0.00 | 0.00 | 0.00 | 70 | 935.5 |
| 20260502113132 | 29 | 98 | 1.7 | 2.6 | 0.00 | 0.00 | 0.00 | 70 | 935.2 |
| 20260502112630 | 29 | 124 | 2.6 | 4.3 | 0.00 | 0.00 | 0.00 | 70 | 935.6 |
| 20260502112127 | 29 | 133 | 3.5 | 6.1 | 0.00 | 0.00 | 0.00 | 70 | 935.2 |
| 20260502111624 | 29 | 120 | 2.6 | 2.6 | 0.00 | 0.00 | 0.00 | 69 | 935.3 |
| 20260502111122 | 29 | 119 | 2.6 | 2.6 | 0.00 | 0.00 | 0.00 | 69 | 935.3 |
| 20260502110619 | 30 | 120 | 2.6 | 4.3 | 0.00 | 0.00 | 0.00 | 68 | 935.6 |
| 20260502110117 | 29 | 115 | 1.7 | 4.3 | 0.00 | 0.00 | 0.00 | 69 | 935.7 |
| 20260502105614 | 30 | 124 | 3.5 | 4.3 | 0.00 | 0.00 | 0.00 | 68 | 935.5 |
| 20260502105111 | 30 | 120 | 2.6 | 4.3 | 0.00 | 0.00 | 0.00 | 68 | 935.6 |
| 20260502104608 | 30 | 147 | 3.5 | 7.8 | 0.00 | 0.00 | 0.00 | 68 | 935.2 |
| 20260502104105 | 30 | 127 | 4.3 | 6.1 | 0.00 | 0.00 | 0.00 | 68 | 935.5 |
| 20260502103603 | 29 | 127 | 4.3 | 5.2 | 0.00 | 0.00 | 0.00 | 68 | 935.3 |
| 20260502103101 | 30 | 105 | 2.6 | 4.3 | 0.00 | 0.00 | 0.00 | 68 | 935.0 |
| 20260502102557 | 30 | 118 | 2.6 | 5.2 | 0.00 | 0.00 | 0.00 | 68 | 935.3 |
| 20260502102054 | 30 | 119 | 2.6 | 4.3 | 0.00 | 0.00 | 0.00 | 67 | 935.2 |
| 20260502101552 | 30 | 128 | 3.5 | 5.2 | 0.00 | 0.00 | 0.00 | 67 | 935.1 |
| 20260502101050 | 30 | 126 | 4.3 | 6.1 | 0.00 | 0.00 | 0.00 | 67 | 935.2 |
| 20260502100548 | 30 | 126 | 5.2 | 6.1 | 0.00 | 0.00 | 0.00 | 67 | 935.0 |
| 20260502091523 | 31 | 141 | 4.3 | 6.1 | 0.00 | 0.00 | 0.00 | 65 | 935.0 |
| 20260502091020 | 31 | 128 | 4.3 | 5.2 | 0.00 | 0.00 | 0.00 | 65 | 935.2 |
| 20260502090517 | 31 | 107 | 1.7 | 2.6 | 0.00 | 0.00 | 0.00 | 64 | 935.2 |
| 20260502071412 | 34 | 128 | 2.6 | 4.3 | 0.00 | 0.00 | 0.00 | 61 | 935.3 |
| 20260502070910 | 34 | 140 | 2.6 | 5.2 | 0.00 | 0.00 | 0.00 | 61 | 935.3 |
| 20260502070407 | 35 | 127 | 2.6 | 5.2 | 0.00 | 0.00 | 0.00 | 61 | 935.2 |
| 20260502065906 | 35 | 133 | 0.0 | 0.0 | 0.00 | 0.00 | 0.00 | 59 | 935.2 |
| 20260502065404 | 36 | 126 | 0.0 | 0.0 | 0.00 | 0.00 | 0.00 | 56 | 934.8 |
| 20260502064902 | 37 | 115 | 0.0 | 0.0 | 0.00 | 0.00 | 0.00 | 54 | 935.0 |
| 20260502064359 | 35 | 104 | 0.0 | 0.0 | 0.00 | 0.00 | 0.00 | 56 | 935.0 |
| 20260502063856 | 35 | 103 | 0.0 | 0.9 | 0.00 | 0.00 | 0.00 | 57 | 934.8 |
| 20260502063354 | 37 | 71 | 0.0 | 0.0 | 0.00 | 0.00 | 0.00 | 56 | 935.1 |
| 20260502062851 | 38 | 119 | 0.0 | 0.0 | 0.00 | 0.00 | 0.00 | 51 | 934.8 |
| 20260502062348 | 37 | 138 | 0.0 | 6.1 | 0.00 | 0.00 | 0.00 | 52 | 934.8 |
| 20260502061847 | 36 | 122 | 0.0 | 0.9 | 0.00 | 0.00 | 0.00 | 57 | 934.9 |
| 20260502061345 | 37 | 107 | 0.0 | 0.0 | 0.00 | 0.00 | 0.00 | 53 | 934.7 |
| 20260502060840 | 37 | 137 | 0.0 | 5.2 | 0.00 | 0.00 | 0.00 | 51 | 934.9 |
| 20260502060335 | 38 | 128 | 3.5 | 5.2 | 0.00 | 0.00 | 0.00 | 49 | 934.9 |
| 20260502055833 | 38 | 129 | 2.6 | 6.1 | 0.00 | 0.00 | 0.00 | 48 | 934.9 |
| 20260502055331 | 38 | 118 | 4.3 | 6.1 | 0.00 | 0.00 | 0.00 | 46 | 935.0 |
| 20260502054831 | 37 | 107 | 2.6 | 6.1 | 0.00 | 0.00 | 0.00 | 47 | 934.8 |
| 20260502054328 | 37 | 65 | 0.0 | 0.0 | 0.00 | 0.00 | 0.00 | 51 | 934.7 |
| 20260502053825 | 38 | 103 | 0.0 | 0.9 | 0.00 | 0.00 | 0.00 | 51 | 934.5 |
| 20260502053322 | 38 | 130 | 2.6 | 6.1 | 0.00 | 0.00 | 0.00 | 51 | 934.4 |
| 20260502052820 | 38 | 110 | 1.7 | 4.3 | 0.00 | 0.00 | 0.00 | 50 | 934.8 |
| 20260502052318 | 38 | 127 | 3.5 | 5.2 | 0.00 | 0.00 | 0.00 | 50 | 934.5 |
| 20260502051815 | 39 | 142 | 2.6 | 6.1 | 0.00 | 0.00 | 0.00 | 50 | 934.7 |
| 20260502051314 | 39 | 122 | 3.5 | 7.0 | 0.00 | 0.00 | 0.00 | 49 | 934.5 |
| 20260502050809 | 39 | 136 | 5.2 | 6.1 | 0.00 | 0.00 | 0.00 | 49 | 934.5 |
| 20260502050306 | 40 | 132 | 4.3 | 7.0 | 0.00 | 0.00 | 0.00 | 47 | 934.3 |
| 20260502045803 | 39 | 131 | 6.1 | 7.8 | 0.00 | 0.00 | 0.00 | 48 | 934.9 |
| 20260502045300 | 40 | 133 | 5.2 | 7.8 | 0.00 | 0.00 | 0.00 | 48 | 934.7 |
| 20260502044757 | 40 | 130 | 5.2 | 7.0 | 0.00 | 0.00 | 0.00 | 47 | 934.4 |
| 20260502044253 | 40 | 131 | 5.2 | 6.1 | 0.00 | 0.00 | 0.00 | 46 | 934.4 |
| 20260502043750 | 41 | 141 | 3.5 | 7.0 | 0.00 | 0.00 | 0.00 | 45 | 934.5 |
| 20260502043248 | 41 | 112 | 5.2 | 7.0 | 0.00 | 0.00 | 0.00 | 44 | 934.4 |
| 20260502042747 | 41 | 133 | 3.5 | 7.0 | 0.00 | 0.00 | 0.00 | 43 | 934.8 |
| 20260502042245 | 41 | 130 | 0.0 | 2.6 | 0.00 | 0.00 | 0.00 | 42 | 934.4 |
| 20260502041742 | 40 | 65 | 0.0 | 0.0 | 0.00 | 0.00 | 0.00 | 46 | 934.4 |
| 20260502041240 | 40 | 57 | 0.0 | 0.0 | 0.00 | 0.00 | 0.00 | 45 | 934.7 |
| 20260502040736 | 41 | 62 | 0.0 | 0.0 | 0.00 | 0.00 | 0.00 | 44 | 934.5 |
| 20260502040233 | 40 | 64 | 0.0 | 0.0 | 0.00 | 0.00 | 0.00 | 44 | 934.3 |
| 20260502035729 | 41 | 70 | 0.0 | 0.0 | 0.00 | 0.00 | 0.00 | 43 | 934.2 |
| 20260502035226 | 41 | 52 | 0.0 | 0.0 | 0.00 | 0.00 | 0.00 | 44 | 934.2 |
| 20260502034723 | 42 | 53 | 0.0 | 0.0 | 0.00 | 0.00 | 0.00 | 42 | 934.0 |
| 20260502034222 | 41 | 55 | 0.0 | 0.0 | 0.00 | 0.00 | 0.00 | 44 | 934.1 |
| 20260502033719 | 41 | 47 | 0.0 | 0.0 | 0.00 | 0.00 | 0.00 | 44 | 933.9 |
| 20260502033217 | 44 | 33 | 0.0 | 0.0 | 0.00 | 0.00 | 0.00 | 44 | 933.9 |
| 20260502032713 | 46 | 102 | 0.0 | 0.0 | 0.00 | 0.00 | 0.00 | 35 | 933.5 |
| 20260502032209 | 46 | 93 | 0.0 | 0.0 | 0.00 | 0.00 | 0.00 | 36 | 933.6 |
| 20260502031708 | 47 | 102 | 0.0 | 0.0 | 0.00 | 0.00 | 0.00 | 33 | 933.5 |
| 20260502031205 | 48 | 126 | 0.0 | 0.0 | 0.00 | 0.00 | 0.00 | 33 | 933.6 |
| 20260502030704 | 48 | 118 | 0.0 | 0.9 | 0.00 | 0.00 | 0.00 | 34 | 933.4 |
| 20260502030201 | 48 | 119 | 0.9 | 5.2 | 0.00 | 0.00 | 0.00 | 33 | 933.5 |
| 20260502025658 | 48 | 137 | 5.2 | 6.1 | 0.00 | 0.00 | 0.00 | 33 | 933.4 |
| 20260502025156 | 50 | 141 | 1.7 | 4.3 | 0.00 | 0.00 | 0.00 | 32 | 933.4 |
| 20260502024654 | 50 | 115 | 3.5 | 5.2 | 0.00 | 0.00 | 0.00 | 30 | 933.3 |
| 20260502024152 | 51 | 131 | 0.9 | 2.6 | 0.00 | 0.00 | 0.00 | 28 | 933.6 |
| 20260502023649 | 52 | 133 | 2.6 | 4.3 | 0.00 | 0.00 | 0.00 | 27 | 933.3 |
| 20260502023146 | 53 | 128 | 0.0 | 0.0 | 0.00 | 0.00 | 0.00 | 25 | 933.4 |
| 20260502022643 | 53 | 107 | 0.0 | 4.3 | 0.00 | 0.00 | 0.00 | 25 | 933.1 |
| 20260502022140 | 54 | 91 | 4.3 | 6.1 | 0.00 | 0.00 | 0.00 | 24 | 933.2 |
| 20260502021638 | 54 | 103 | 6.1 | 6.1 | 0.00 | 0.00 | 0.00 | 24 | 933.3 |
| 20260502021135 | 55 | 108 | 5.2 | 6.1 | 0.00 | 0.00 | 0.00 | 23 | 933.2 |